Simultaneous Nadir Overpasses (SNOs) Predictions

Prediction of SNOs between GOES-16 and LANDSAT-8 Satellite Orbit:

Table of predicted SNOs for the next 14.0 days since TLE Epoch: 2/19/2022
Index Date Time (GOES-16) GOES-16 Lat,Lon LANDSAT-8 Lat,Lon Distance(km) Time Diff (sec)
1 02/19/2022 14:54:20 0.04, -75.23 -0.89, -70.94 487.75 80
2 02/20/2022 03:18:24 -0.04, -75.21 -0.21, -76.13 104.95 80
3 02/22/2022 03:03:31 -0.04, -75.21 0.39, -73.17 231.86 80
4 02/22/2022 15:27:26 0.05, -75.23 0.72, -78.32 351.75 80
5 02/24/2022 15:12:34 0.04, -75.24 0.05, -75.37 15.07 80
6 02/26/2022 15:00:21 0.04, -75.24 -0.57, -72.41 322.21 80
7 02/27/2022 03:24:25 -0.04, -75.23 -0.53, -77.60 270.08 80
8 03/01/2022 03:09:32 -0.04, -75.24 0.09, -74.64 68.06 80
9 03/03/2022 02:57:19 -0.04, -75.26 0.72, -71.68 407.25 80
10 03/03/2022 15:18:34 0.04, -75.29 0.38, -76.84 175.91 80
